Retour au catalogue

STARLINK-33914

ActifCommunicationsVLEO
NORAD 63774·PAYLOAD·🇺🇸 United States

Lancé Apr 29, 2025 depuis Cape Canaveral Space Force Station

Loading…

Prochains Passages (prochaines 24 heures)

TLE

FraisSource: CelesTrak SupGP

Époque: Sep 15, 2026, 02:42 UTC

1 63774C 25089Y   26258.11298611 -.00029683  00000+0 -10751-2 0  2586
2 63774  43.0008  51.5384 0001573 270.7904  44.1830 15.27594531    18

Suivez STARLINK-33914 en temps réel avec AllMySat

Download on the App Store